Find Starlink 11572

NORAD ID: 62990 Int'l Des: 2025-031 Owner: SPXS Country: US Constellation: starlink operational
LEOCIRCULAR

リアルタイム位置

3D地球を読み込み中...

Starlink 11572について

説明を読み込み中...

次回通過

Passes for default location (London). Set your location on the main map for personalized predictions.

高度履歴

Loading altitude history...

軌道要素

1 62990U 25031K 26126.03671782 .00177810 00000-0 13614-2 0 9999
2 62990 42.9992 15.6055 0001481 290.6388 69.4321 15.70812107 71763
Epoch: May 6, 2026 • Age: 23 hours

現在のステータス

高度 359.6 km
速度 7.70 km/s
衛星直下点 43.15°N, 126.22°W
打ち上げ日 Feb 11, 2025
運用期間 1.2 years
タイプ internet

技術仕様

分類 Payload
質量 960.00 kg
乾燥質量 910.00 kg
総質量 960.00 kg
長さ 0.30 m
直径 4.10 m
スパン 29.00 m
形状 Box + pan
製造者 SPXS
バスタイプ Starlink V2MD
フェーズステータス In Orbit
所有者/国 SPXS/US

Most Searched